This is the latest recevied weather packets stored in our database for station/object W2OBX. If no packets are shown the sender has not sent any weather packets the latest 10 day(s).
| Time | Temp. | Humidity | Pressure | Rain* | Wind** | Luminosity | Snow |
|---|---|---|---|---|---|---|---|
| 1777403603 | 22.78° C | 76% | 1018.3 hPa | 0 mm | - | 63 W/m² | - |
| 1777403298 | 23.33° C | 73% | 1018.2 hPa | 0 mm | - | 76 W/m² | - |
| 1777402994 | 23.33° C | 72% | 1018.3 hPa | 0 mm | - | 118 W/m² | - |
| 1777402689 | 23.33° C | 74% | 1018.4 hPa | 0 mm | - | 110 W/m² | - |
| 1777402388 | 23.33° C | 72% | 1018.4 hPa | 0 mm | - | 135 W/m² | - |
| 1777402087 | 23.33° C | 76% | 1018.3 hPa | 0 mm | - | 167 W/m² | - |
| 1777401782 | 23.33° C | 73% | 1018.5 hPa | 0 mm | - | 166 W/m² | - |
| 1777401477 | 22.78° C | 74% | 1018.5 hPa | 0 mm | - | 138 W/m² | - |
| 1777401173 | 22.78° C | 77% | 1018.3 hPa | 0 mm | - | 800 W/m² | - |
| 1777400869 | 22.78° C | 76% | 1018.4 hPa | 0 mm | - | 324 W/m² | - |
| 1777400565 | 22.22° C | 76% | 1018.6 hPa | 0 mm | - | 802 W/m² | - |
| 1777400263 | 22.22° C | 77% | 1018.6 hPa | 0 mm | - | 696 W/m² | - |
| 1777399958 | 22.22° C | 77% | 1018.6 hPa | 0 mm | - | 174 W/m² | - |
| 1777399655 | 21.67° C | 77% | 1018.7 hPa | 0 mm | - | 242 W/m² | - |
| 1777399352 | 22.22° C | 77% | 1018.6 hPa | 0 mm | - | 330 W/m² | - |
| 1777399050 | 22.22° C | 80% | 1018.7 hPa | 0 mm | - | 534 W/m² | - |
| 1777398747 | 21.67° C | 81% | 1018.9 hPa | 0 mm | - | 640 W/m² | - |
| 1777398444 | 21.67° C | 81% | 1019 hPa | 0 mm | - | 785 W/m² | - |
| 1777398141 | 21.67° C | 74% | 1019 hPa | 0 mm | - | 522 W/m² | - |
| 1777397837 | 21.67° C | 77% | 1019.1 hPa | 0 mm | - | 550 W/m² | - |
| 1777397533 | 21.67° C | 77% | 1019.1 hPa | 0 mm | - | 195 W/m² | - |
| 1777397229 | 21.67° C | 78% | 1019 hPa | 0 mm | - | 807 W/m² | - |
| 1777396926 | 21.67° C | 79% | 1019 hPa | 0 mm | - | 799 W/m² | - |
| 1777396622 | 21.11° C | 79% | 1019.1 hPa | 0 mm | - | 788 W/m² | - |
| 1777396319 | 21.11° C | 79% | 1019.5 hPa | 0 mm | - | 717 W/m² | - |
* Rain latest hour (hover to see other rain measurements)
** Current wind speed in m/s (hover to see current wind gust speed)